STARLINK-32739, 62498

Orbit data source: Space-Track

STARLINK-32739, 62498 is a payload satellite owned by SpaceX/Seattle (US) in LEO that was launched on Mon, 06 Jan 2025 UTC via an FALCON 9 launch vehicle from the Air Force Eastern Test Range (AFETR). Payload-class satellites include a variety of spacecraft equipped with specific instruments for various scientific and technological missions. These include communications satellites like Starlink; space stations such as the ISS; scientific satellites like the Hubble; Earth observation satellites from companies like Planet Labs, Umbra, and HawkEye 360; GPS; miniature CubeSats for education and research; and military/defense satellites.

Loading next visibility...
Identifier
62498, 2025-003M
Orbit
LEO
Country
Flag of USUS
Related business
Manufacturer
SpaceX/Seattle
Mission
Operational Commercial Communications
Bus & Motor
STARLINK V2M, Unknown motor
Mass
730 kg wet, ~700 kg dry
Launch date (UTC)
2025-01-06 (1 year ago)
Launch vehicle
FALCON 9
Launch site
Air Force Eastern Test Range (AFETR)
Object type
Payload
Rocket body
Debris
Shape & HBR
Box + 2 Pan, 17.7 m
Radar Cross Section
33.884 m², Large (>1 m²)

Expand to show TLE details & history
Last TLE update: 10 hours ago

TLE from 10 hours ago
0 STARLINK-32739
1 62498U 25003M   26171.42389958  .00006118  00000-0  23169-3 0  9994
2 62498  43.0009  68.7624 0000485  43.8187 316.2703 15.27571984 82335
Epoch: 2026-06-20T10:10Z
TLE epoch observation values (Epoch: 2026-06-20T10:10:24.923Z)
Latitude
-0.00003°
Longitude
7.51979°
Altitude
482.608 km
Speed
7.626 km/s
True Right ascension
04h 35m 02s
True Declination
0° 00' 00"
Sunlit
Object was in daylight at epoch
Visualization orbit readout
Latitude
Unknown
Longitude
Unknown
Altitude
Unknown
Speed
Unknown
Apparent Right ascension
Unknown
Apparent Declination
Unknown
Sunlit
N/A
Visualization observer readout
Local Sidereal Time
07:17:43
Azimuth
Unknown
Elevation
Unknown
Doppler factor
Unknown
Orbital elements
Apogee altitude
485.351 km
Perigee altitude
484.685 km
Semi-major axis
6,863.155 km
Eccentricity
0.00005
Inclination
43.0009°
RAAN
68.7624°
Arg. of periapsis
43.8187°
True anomaly
316.26646°
Mean anomaly
316.2703°
Eccentric anomaly
316.26838°
Mean motion
3.81731 °/min
Orbital period
94.31 mins
BSTAR
0.00023169
Loading maneuver chart data...
Computing Atmospheric mass density...
Loading historical data...
Loading historical data...
Loading historical data...
Loading historical data...
Loading historical data...
Loading historical data...
Loading historical data...

Documentation

Showing up to 5 results
|